This is the latest recevied weather packets stored in our database for station/object KJ4EWA. If no packets are shown the sender has not sent any weather packets the latest 10 day(s).
| Time | Temp. | Humidity | Pressure | Rain* | Wind** | Luminosity | Snow |
|---|---|---|---|---|---|---|---|
| 1778166652 | 20.56° C | 99% | 1017.9 hPa | 0 mm | - | 2 W/m² | - |
| 1778166349 | 21.11° C | 99% | 1018.8 hPa | 0 mm | - | 2 W/m² | - |
| 1778166045 | 21.67° C | 99% | 1018.6 hPa | 0 mm | - | 1 W/m² | - |
| 1778165740 | 22.22° C | 99% | 1017.8 hPa | 0 mm | - | 0 W/m² | - |
| 1778165439 | 23.89° C | 99% | 1017.7 hPa | 0 mm | - | 0 W/m² | - |
| 1778165135 | 25° C | 99% | 1017.5 hPa | 0 mm | - | 0 W/m² | - |
| 1778164833 | 25.56° C | 97% | 1017.2 hPa | 0 mm | - | 5 W/m² | - |
| 1778164530 | 26.11° C | 97% | 1016.6 hPa | 0 mm | - | 17 W/m² | - |
| 1778164227 | 26.11° C | 96% | 1016.5 hPa | 0 mm | - | 33 W/m² | - |
| 1778163922 | 26.11° C | 97% | 1016 hPa | 0 mm | - | 44 W/m² | - |
| 1778163619 | 26.11° C | 98% | 1015.9 hPa | 0 mm | - | 139 W/m² | - |
| 1778163315 | 25.56° C | 98% | 1016 hPa | 0 mm | - | 206 W/m² | - |
| 1778163012 | 25.56° C | 99% | 1015.8 hPa | 0 mm | - | 95 W/m² | - |
| 1778162709 | 25° C | 99% | 1016.1 hPa | 0 mm | - | 78 W/m² | - |
| 1778162407 | 25° C | 99% | 1016.2 hPa | 0 mm | - | 65 W/m² | - |
| 1778162103 | 25° C | 99% | 1016.2 hPa | 0 mm | - | 60 W/m² | - |
| 1778161801 | 25° C | 99% | 1016 hPa | 0 mm | - | 75 W/m² | - |
| 1778161496 | 24.44° C | 99% | 1015.9 hPa | 0 mm | - | 70 W/m² | - |
| 1778161193 | 24.44° C | 99% | 1016.2 hPa | 0 mm | - | 61 W/m² | - |
| 1778160889 | 24.44° C | 99% | 1016.2 hPa | 0 mm | - | 62 W/m² | - |
| 1778160588 | 24.44° C | 99% | 1016.6 hPa | 0 mm | - | 43 W/m² | - |
| 1778160283 | 25° C | 99% | 1016.3 hPa | 0 mm | - | 54 W/m² | - |
| 1778159980 | 25° C | 99% | 1015.8 hPa | 0 mm | - | 13 W/m² | - |
| 1778159677 | 25.56° C | 98% | 1016.3 hPa | 0 mm | - | 18 W/m² | - |
| 1778159374 | 25.56° C | 97% | 1016.2 hPa | 0 mm | - | 34 W/m² | - |
* Rain latest hour (hover to see other rain measurements)
** Current wind speed in m/s (hover to see current wind gust speed)